OBJECT G, 63297

Orbit data source: Space-Track

You're viewing an Uncataloged Satellite

Recently launched and/or uncataloged satellites may have evolving metadata. Metadata may include but not limited to: Owner, Maufacturer, Bus, Motor, and Mission.

OBJECT G, 63297 is a Chinese satellite in SSO that was launched on Mon, 17 Mar 2025 UTC via a GUSHENXING 1 launch vehicle from the Jiuquan Satellite Launch Center, China (JSC). Unknown objects in Earth's orbit typically refer to objects detected orbiting the Earth but have not yet been identified or cataloged. These objects could be anything from previously untracked satellites, spent rocket stages, debris from satellite collisions, or even natural meteoroids temporarily captured by Earth's gravity.

Loading next visibility...
Identifier
63297, 2025-055G
Orbit
SSO
Last TLE update
1 day ago
Origin
Flag of CNZHWK/JIG (CN / PRC)
Manufacturer
ZHWK/HITSAT
Mission
Operational spacecraft
Bus & Motor
ZK1, Unknown motor
Mass
~250 kg wet, ~250 kg dry
Launch date (UTC)
2025-03-17 (1 month ago)
Launch vehicle
GUSHENXING 1
Launch site
Jiuquan Satellite Launch Center, China (JSC)
Object type
Unknown
Shape & HBR
Unknown
Radar Cross Section
Medium (>0.1 m² and <1 m²)

Expand to show TLE details & history

TLE from 1 day ago
0 OBJECT G
1 63297U 25055G   25119.17867890  .00018286  00000-0  10826-2 0  9992
2 63297  97.6052 254.2855 0012828 146.0748 214.1305 15.11405246  6438
Epoch: 2025-04-29T04:17Z
Definitive object data (Epoch: 2025-04-29T04:17:17.856Z)
Latitude
-0.00004°
Longitude
-27.42097°
Altitude
542.329 km
Speed
7.587 km/s
True Right ascension
16h 57m 08s
True Declination
0° 00' 00"
Sunlit
Object was in full shadow at TLE epoch
Visualization TLE readout
Latitude
81.1448°
Longitude
-147.6867°
Altitude
539.179 km
Speed
7.603 km/s
Apparent Right ascension
06h 53m 19s
Apparent Declination
25° 21' 24"
Sunlit
Object is in daylight
Visualization observer readout
Local Sidereal Time
18:27:46
Azimuth
353.658° N
Elevation
-24.456°
Doppler factor
1
Orbital elements
Apogee altitude
537.76 km
Perigee altitude
520.039 km
Semi-major axis
6,907.036 km
Eccentricity
0.0012828
Inclination
97.6052°
RAAN
254.2855°
Arg. of periapsis
146.0748°
True anomaly
214.04813°
Mean anomaly
214.1305°
Eccentric anomaly
214.0893°
Mean motion
3.78099 °/min
BSTAR
0.0010826
Orbital period
95.21 mins
Loading maneuver chart data...
Loading SW <> Apogee altitude chart data...
Loading historical data...
Loading historical data...
Loading historical data...
Loading historical data...
Loading historical data...
Loading historical data...
Loading historical data...

OBJECT G Visibility forecast

Observer location: undefined°, undefined°

Span
Click to sort rows by Start time (UTC) header in descending order
Start Az.
Max El. time (UTC)
Max El. Az.
Max El.
End time (UTC)
End Az.
6 mins2025-04-30 22:09:41.048Z358.201° N2025-04-30 22:12:41.048Z284.753° WNW37.446°2025-04-30 22:15:41.048Z213.121° SW
6 mins2025-05-01 08:51:41.048Z155.561° SSE2025-05-01 08:53:41.048Z117.678° SE41.907°2025-05-01 08:57:41.048Z353.009° N
|